Weather History for LTFE - December, 2012

Change the Weather History Date:

Wednesday, December 19, 2012

  Actual Average (LGKO) Record (LGKO)
Temperature  
Mean Temperature 52 °F -  
Max Temperature 57 °F 55 °F 66 °F (2006)
Min Temperature 48 °F 48 °F 37 °F (2003)
Degree Days  
Heating Degree Days 12    
Growing Degree Days 2 (Base 50)    
Moisture  
Dew Point 48 °F    
Average Humidity 86    
Maximum Humidity 94    
Minimum Humidity 67    
Precipitation  
Precipitation 0.00 in - - ()
Sea Level Pressure  
Sea Level Pressure 29.63 in    
Wind  
Wind Speed 5 mph ()    
Max Wind Speed 13 mph    
Max Gust Speed -    
Visibility 6.1 miles    
Events Rain , Thunderstorm    
Averages and records for this station are not official NWS values.
T = Trace of Precipitation, MM = Missing Value Source: Averaged Metar Reports

Daily Weather History Graph

Daily Weather History Graph

Search for Another Location

Airport or City:

Trip Planner

Search our weather history database for the weather conditions in past years. The results will help you decide how hot, cold, wet, or windy it might be!

Date:

Astronomy

Dec. 19, 2012 Rise Set
Actual Time 7:18 AM EET 4:54 PM EET
Civil Twilight 6:49 AM EET 5:23 PM EET
Nautical Twilight 6:16 AM EET 5:56 PM EET
Astronomical Twilight 5:44 AM EET 6:28 PM EET
Moon 11:26 AM EET (12/19) 11:53 PM EET (12/19)
Length of Visible Light 10h 34m
Length of Day
9h 36m
Waxing Crescent, 42% of the Moon is Illuminated
Dec 19
Waxing Crescent
Dec 20
First Quarter
Dec 28
Full
Jan 5
Last Quarter
Jan 11
New

Hourly Weather History & Observations

Time (EET) Temp. Dew Point Humidity Pressure Visibility Wind Dir Wind Speed Gust Speed Precip Events Conditions
12:20 AM 55.4 °F 48.2 °F 77% 29.62 in 6.2 mi WNW 12.7 mph - N/A Rain , Thunderstorm Light Thunderstorms and Rain
12:50 AM 53.6 °F 48.2 °F 82% 29.62 in 6.2 mi Variable 2.3 mph - N/A Rain , Thunderstorm Light Thunderstorms and Rain
1:20 AM 51.8 °F 48.2 °F 88% 29.62 in 6.2 mi ENE 3.5 mph - N/A   Mostly Cloudy
1:50 AM 53.6 °F 50.0 °F 88% 29.62 in 6.2 mi ESE 5.8 mph - N/A Rain , Thunderstorm Light Thunderstorms and Rain
2:20 AM 51.8 °F 50.0 °F 94% 29.62 in 6.2 mi SE 8.1 mph - N/A Thunderstorm Thunderstorm
2:50 AM 53.6 °F 50.0 °F 88% 29.62 in 6.2 mi East 5.8 mph - N/A Thunderstorm Thunderstorm
3:20 AM 53.6 °F 50.0 °F 88% 29.62 in 6.2 mi South 9.2 mph - N/A Rain , Thunderstorm Light Thunderstorms and Rain
3:50 AM 53.6 °F 48.2 °F 82% 29.62 in 6.2 mi South 8.1 mph - N/A Rain , Thunderstorm Light Thunderstorms and Rain
4:20 AM 53.6 °F 48.2 °F 82% 29.62 in 6.2 mi Variable 4.6 mph - N/A Rain , Thunderstorm Light Thunderstorms and Rain
4:50 AM 51.8 °F 48.2 °F 88% 29.62 in 6.2 mi NE 5.8 mph - N/A Thunderstorm Thunderstorm
5:20 AM 51.8 °F 48.2 °F 88% 29.62 in 6.2 mi ENE 4.6 mph - N/A Thunderstorm Thunderstorm
5:50 AM 51.8 °F 48.2 °F 88% 29.62 in 6.2 mi East 5.8 mph - N/A Rain , Thunderstorm Light Thunderstorms and Rain
6:20 AM 51.8 °F 50.0 °F 94% 29.62 in 5.6 mi Variable 4.6 mph - N/A Rain , Thunderstorm Light Thunderstorms and Rain
6:50 AM 51.8 °F 48.2 °F 88% 29.65 in 6.2 mi Variable 2.3 mph - N/A Rain , Thunderstorm Light Thunderstorms and Rain
7:20 AM 50.0 °F 48.2 °F 94% 29.65 in 5.0 mi SE 4.6 mph - N/A Rain , Thunderstorm Light Thunderstorms and Rain
7:50 AM 50.0 °F 48.2 °F 94% 29.65 in 3.7 mi ESE 6.9 mph - N/A Rain , Thunderstorm Light Thunderstorms and Rain
8:20 AM 50.0 °F 48.2 °F 94% 29.65 in 6.2 mi Variable 2.3 mph - N/A   Mostly Cloudy
8:50 AM 50.0 °F 48.2 °F 94% 29.65 in 6.2 mi North 3.5 mph - N/A   Mostly Cloudy
9:20 AM 51.8 °F 50.0 °F 94% 29.65 in 6.2 mi Variable 2.3 mph - N/A   Mostly Cloudy
9:50 AM 51.8 °F 50.0 °F 94% 29.65 in 6.2 mi East 3.5 mph - N/A   Mostly Cloudy
10:20 AM 51.8 °F 50.0 °F 94% 29.65 in 6.2 mi ENE 5.8 mph - N/A Rain , Thunderstorm Light Thunderstorms and Rain
10:50 AM 51.8 °F 50.0 °F 94% 29.65 in 6.2 mi ENE 5.8 mph - N/A Rain , Thunderstorm Light Thunderstorms and Rain
11:20 AM 53.6 °F 50.0 °F 88% 29.65 in 6.2 mi ESE 3.5 mph - N/A   Mostly Cloudy
11:50 AM 53.6 °F 48.2 °F 82% 29.65 in 6.2 mi East 6.9 mph - N/A Rain Light Rain Showers
12:20 PM 55.4 °F 48.2 °F 77% 29.65 in 6.2 mi East 5.8 mph - N/A   Mostly Cloudy
12:50 PM 55.4 °F 46.4 °F 72% 29.65 in 6.2 mi Variable 2.3 mph - N/A   Mostly Cloudy
1:20 PM 57.2 °F 46.4 °F 67% 29.62 in 6.2 mi Variable 1.2 mph - N/A   Mostly Cloudy
1:50 PM 55.4 °F 46.4 °F 72% 29.62 in 6.2 mi WSW 3.5 mph - N/A   Mostly Cloudy
2:20 PM 57.2 °F 48.2 °F 72% 29.62 in 6.2 mi Calm Calm - N/A   Mostly Cloudy
2:50 PM 57.2 °F 48.2 °F 72% 29.62 in 6.2 mi Variable 2.3 mph - N/A   Mostly Cloudy
3:20 PM 55.4 °F 46.4 °F 72% 29.62 in 6.2 mi Calm Calm - N/A   Mostly Cloudy
3:50 PM 55.4 °F 48.2 °F 77% 29.62 in 6.2 mi West 5.8 mph - N/A   Mostly Cloudy
4:20 PM 53.6 °F 48.2 °F 82% 29.62 in 6.2 mi West 8.1 mph - N/A Rain Light Rain Showers
4:50 PM 53.6 °F 50.0 °F 88% 29.62 in 6.2 mi WNW 9.2 mph - N/A Rain Light Rain Showers
5:20 PM 51.8 °F 48.2 °F 88% 29.62 in 6.2 mi NNW 4.6 mph - N/A   Mostly Cloudy
5:50 PM 51.8 °F 48.2 °F 88% 29.62 in 6.2 mi ESE 3.5 mph - N/A   Mostly Cloudy
6:20 PM 50.0 °F 46.4 °F 87% 29.62 in 6.2 mi SE 4.6 mph - N/A   Mostly Cloudy
6:50 PM 51.8 °F 46.4 °F 82% 29.62 in 6.2 mi SE 4.6 mph - N/A   Mostly Cloudy
7:20 PM 50.0 °F 46.4 °F 87% 29.62 in 6.2 mi Variable 2.3 mph - N/A   Mostly Cloudy
7:50 PM 50.0 °F 46.4 °F 87% 29.62 in 6.2 mi Calm Calm - N/A   Mostly Cloudy
8:20 PM 50.0 °F 46.4 °F 87% 29.62 in 6.2 mi ESE 3.5 mph - N/A   Mostly Cloudy
8:50 PM 50.0 °F 46.4 °F 87% 29.62 in 6.2 mi South 3.5 mph - N/A   Mostly Cloudy
9:20 PM 50.0 °F 46.4 °F 87% 29.62 in 6.2 mi Variable 2.3 mph - N/A   Mostly Cloudy
9:50 PM 48.2 °F 46.4 °F 93% 29.62 in 6.2 mi Variable 1.2 mph - N/A   Mostly Cloudy
10:20 PM 48.2 °F 46.4 °F 93% 29.62 in 6.2 mi SSE 3.5 mph - N/A   Mostly Cloudy
10:50 PM 48.2 °F 44.6 °F 87% 29.62 in 6.2 mi Variable 1.2 mph - N/A   Mostly Cloudy
11:20 PM 48.2 °F 44.6 °F 87% 29.62 in 6.2 mi SSW 5.8 mph - N/A   Mostly Cloudy
11:50 PM 48.2 °F 44.6 °F 87% 29.62 in 6.2 mi SSW 5.8 mph - N/A   Mostly Cloudy